Weather History for Tucson Davis Monthan, AZ

Change the Weather History Date:

Tuesday, May 14, 2013

  Actual Average Record
Temperature  
Mean Temperature 82 °F -  
Max Temperature 93 °F 90 °F 104 °F (1988)
Min Temperature 71 °F 58 °F 46 °F (1967)
Cooling Degree Days 17    
Growing Degree Days 32 (Base 50)    
Moisture  
Dew Point 29 °F    
Average Humidity 15    
Maximum Humidity 26    
Minimum Humidity 8    
Precipitation  
Precipitation 0.00 in - - ()
Sea Level Pressure  
Sea Level Pressure 29.87 in    
Wind  
Wind Speed 10 mph (South)    
Max Wind Speed 20 mph    
Max Gust Speed 23 mph    
Visibility 10 miles    
Events      
Averages and records for this station are not official NWS values.
T = Trace of Precipitation, MM = Missing Value Source: NWS Daily Summary

Daily Weather History Graph

Daily Weather History Graph

Search for Another Location

Airport:

Trip Planner

Search our weather history database for the weather conditions in past years. The results will help you decide how hot, cold, wet, or windy it might be!

Date:

Astronomy

May. 14, 2013 Rise Set
Actual Time 5:26 AM MST 7:13 PM MST
Civil Twilight 4:59 AM MST 7:40 PM MST
Nautical Twilight 4:27 AM MST 8:13 PM MST
Astronomical Twilight 3:52 AM MST 8:47 PM MST
Moon 9:08 AM MST (5/14) 11:05 PM MST (5/14)
Length of Visible Light 14h 41m
Length of Day
13h 47m
Waxing Crescent, 19% of the Moon is Illuminated
May 14
Waxing Crescent
May 17
First Quarter
May 24
Full
May 31
Last Quarter
Jun 8
New

Hourly Weather History & Observations

Time (MST) Temp. Dew Point Humidity Pressure Visibility Wind Dir Wind Speed Gust Speed Precip Events Conditions
12:12 AM 77.0 °F 14.0 °F 9% 30.01 in 10.0 mi SE 19.6 mph 23.0 mph N/A   Scattered Clouds
12:58 AM 77.0 °F 18.3 °F 11% 29.88 in 10.0 mi SSE 9.2 mph - N/A   Scattered Clouds
1:58 AM 75.4 °F 26.6 °F 16% 29.89 in 10.0 mi ESE 8.1 mph - N/A   Scattered Clouds
2:58 AM 73.9 °F 28.4 °F 19% 29.89 in 10.0 mi ESE 9.2 mph - N/A   Partly Cloudy
3:58 AM 73.8 °F 31.3 °F 21% 29.90 in 10.0 mi SE 9.2 mph - N/A   Mostly Cloudy
4:24 AM 73.4 °F 32.0 °F 22% 30.02 in 10.0 mi SSE 4.6 mph - N/A   Light Drizzle
4:37 AM 71.6 °F 32.0 °F 23% 30.02 in 10.0 mi SE 8.1 mph - N/A   Partly Cloudy
4:58 AM 72.1 °F 32.7 °F 23% 29.89 in 10.0 mi East 8.1 mph - 0.00 in   Partly Cloudy
5:58 AM 71.2 °F 34.2 °F 26% 29.90 in 10.0 mi SSE 6.9 mph - N/A   Partly Cloudy
6:58 AM 72.5 °F 33.1 °F 24% 29.91 in 10.0 mi SSE 10.4 mph - N/A   Partly Cloudy
7:58 AM 78.4 °F 34.7 °F 21% 29.91 in 10.0 mi SSE 5.8 mph - N/A   Clear
8:58 AM 82.0 °F 33.6 °F 17% 29.91 in 10.0 mi East 4.6 mph - N/A   Clear
9:58 AM 84.6 °F 32.7 °F 16% 29.91 in 10.0 mi SW 4.6 mph - N/A   Clear
10:58 AM 87.6 °F 30.4 °F 13% 29.89 in 10.0 mi Variable 5.8 mph - N/A   Clear
11:58 AM 88.7 °F 28.8 °F 12% 29.87 in 10.0 mi Variable 3.5 mph - N/A   Clear
12:58 PM 90.7 °F 25.5 °F 10% 29.83 in 10.0 mi Variable 4.6 mph - N/A   Clear
1:58 PM 91.9 °F 26.1 °F 9% 29.82 in 10.0 mi West 5.8 mph - N/A   Clear
2:58 PM 93.4 °F 24.3 °F 8% 29.78 in 10.0 mi WSW 8.1 mph - N/A   Clear
3:58 PM 93.4 °F 24.4 °F 8% 29.76 in 10.0 mi NW 5.8 mph - N/A   Partly Cloudy
4:58 PM 93.7 °F 24.6 °F 8% 29.76 in 10.0 mi Variable 5.8 mph - N/A   Clear
5:06 PM 93.2 °F 24.8 °F 9% 29.89 in 10.0 mi NW 13.8 mph 21.9 mph N/A   Clear
5:58 PM 92.3 °F 26.2 °F 9% 29.76 in 10.0 mi North 11.5 mph - N/A   Clear
6:18 PM 93.2 °F 26.6 °F 9% 29.89 in 10.0 mi NW 12.7 mph - N/A   Clear
6:58 PM 91.6 °F 25.7 °F 9% 29.76 in 10.0 mi NNW 11.5 mph - N/A   Partly Cloudy
7:58 PM 88.3 °F 28.0 °F 11% 29.78 in 10.0 mi NW 6.9 mph - N/A   Clear
8:58 PM 85.6 °F 35.1 °F 16% 29.81 in 10.0 mi West 11.5 mph 18.4 mph N/A   Partly Cloudy
9:58 PM 82.2 °F 35.2 °F 19% 29.83 in 10.0 mi SSW 6.9 mph - N/A   Clear
10:58 PM 81.1 °F 34.3 °F 19% 29.85 in 10.0 mi SW 2.3 mph - N/A   Clear
11:58 PM 77.0 °F 33.4 °F 20% 29.86 in 10.0 mi ESE 6.9 mph - N/A   Clear